Overview Statistics Trail Chart Weather Telemetry Raw packets
 

This is the latest recevied weather packets stored in our database for station/object W1LH-12. If no packets are shown the sender has not sent any weather packets the latest 10 day(s).

<< 1 2 >>
Time Temp. Humidity Pressure Rain* Wind** Luminosity Snow
1788629479 20° C - 1010.5 hPa 0 mm - - -
1788516386 15° C - 1009.9 hPa 0 mm - - -
1788515481 15° C - 1009.9 hPa 0 mm - - -
1788515179 15° C - 1009.9 hPa 0 mm - - -
1788488180 15.56° C - 1013.2 hPa 0 mm - - -
1788484580 15° C - 1013.9 hPa 0 mm - - -
1788483080 15° C - 1013.9 hPa 0 mm - - -
1788480381 15.56° C - 1014.3 hPa 0 mm - - -
1788475881 15.56° C - 1014.9 hPa 0 mm - - -
1788474380 15.56° C - 1014.9 hPa 0 mm - - -
1788469880 16.11° C - 1015.3 hPa 0 mm - - -
1788465681 16.11° C - 1016 hPa 0 mm - - -
1788459391 16.11° C - 1017 hPa 0 mm - - -
1788454881 15.56° C - 1017.7 hPa 0 mm - - -
1788453378 15.56° C - 1018 hPa 0 mm - - -
1788439278 15.56° C - 1019.3 hPa 0 mm - - -
1788153080 13.89° C - 1016.3 hPa 0 mm - - -
1788152181 13.89° C - 1016.3 hPa 0 mm - - -
1788132680 16.67° C - 1014.6 hPa 0 mm - - -
1788131481 18.89° C - 1015.3 hPa 0 mm - - -
1788131180 18.89° C - 1015.3 hPa 0 mm - - -
1788124880 22.78° C - 1014.9 hPa 0 mm - - -
1787969180 18.89° C - 1017 hPa 0 mm - - -
1787968549 18.89° C - 1017 hPa 0 mm - - -
1787968281 18.89° C - 1017 hPa 0 mm - - -

* Rain latest hour (hover to see other rain measurements)
** Current wind speed in m/s (hover to see current wind gust speed)